| time (UTC) | temp C | wind direction | speed KPH | gust KPH | rain 1hr cm | rain 24hr cm | rain mn cm | humidity % | barometer mb |
| 20260507221827 | 29 | 174 | 4.8 | 11.3 | 0.00 | 0.00 | 0.00 | 72 | 1014.6 |
| 20260507221330 | 29 | 164 | 3.2 | 12.9 | 0.00 | 0.00 | 0.00 | 72 | 1014.6 |
| 20260507220827 | 30 | 216 | 8.0 | 12.9 | 0.00 | 0.00 | 0.00 | 72 | 1014.5 |
| 20260507220333 | 30 | 184 | 4.8 | 12.9 | 0.00 | 0.00 | 0.00 | 72 | 1014.5 |
| 20260507215829 | 30 | 174 | 4.8 | 12.9 | 0.00 | 0.00 | 0.00 | 72 | 1014.4 |
| 20260507215334 | 29 | 101 | 4.8 | 16.1 | 0.00 | 0.00 | 0.00 | 72 | 1014.3 |
| 20260507214827 | 29 | 186 | 6.4 | 16.1 | 0.00 | 0.00 | 0.00 | 72 | 1014.3 |
| 20260507214330 | 30 | 155 | 4.8 | 12.9 | 0.00 | 0.00 | 0.00 | 73 | 1014.2 |
| 20260507213827 | 30 | 172 | 8.0 | 17.7 | 0.00 | 0.00 | 0.00 | 72 | 1014.2 |
| 20260507213333 | 30 | 169 | 8.0 | 17.7 | 0.00 | 0.00 | 0.00 | 70 | 1014.3 |
| 20260507212828 | 30 | 154 | 8.0 | 16.1 | 0.00 | 0.00 | 0.00 | 69 | 1014.2 |
| 20260507212326 | 30 | 106 | 4.8 | 16.1 | 0.00 | 0.00 | 0.00 | 68 | 1014.1 |
| 20260507211831 | 30 | 271 | 6.4 | 16.1 | 0.00 | 0.00 | 0.00 | 68 | 1014.1 |
| 20260507211325 | 30 | 162 | 6.4 | 17.7 | 0.00 | 0.00 | 0.00 | 68 | 1014.1 |
| 20260507210830 | 31 | 149 | 3.2 | 14.5 | 0.00 | 0.00 | 0.00 | 68 | 1014.1 |
| 20260507210327 | 31 | 159 | 3.2 | 14.5 | 0.00 | 0.00 | 0.00 | 68 | 1014.1 |
| 20260507205833 | 30 | 160 | 1.6 | 17.7 | 0.00 | 0.00 | 0.00 | 67 | 1014.1 |
| 20260507205329 | 31 | 199 | 6.4 | 17.7 | 0.00 | 0.00 | 0.00 | 65 | 1014.1 |
| 20260507204826 | 31 | 124 | 3.2 | 14.5 | 0.00 | 0.00 | 0.00 | 66 | 1014.0 |
| 20260507204330 | 31 | 217 | 4.8 | 14.5 | 0.00 | 0.00 | 0.00 | 65 | 1014.1 |
| 20260507203833 | 31 | 162 | 3.2 | 14.5 | 0.00 | 0.00 | 0.00 | 66 | 1014.1 |
| 20260507203330 | 31 | 161 | 6.4 | 11.3 | 0.00 | 0.00 | 0.00 | 66 | 1014.1 |
| 20260507202826 | 31 | 169 | 3.2 | 11.3 | 0.00 | 0.00 | 0.00 | 66 | 1014.1 |
| 20260507202332 | 31 | 169 | 1.6 | 17.7 | 0.00 | 0.00 | 0.00 | 67 | 1014.1 |
| 20260507201827 | 30 | 127 | 8.0 | 17.7 | 0.00 | 0.00 | 0.00 | 69 | 1014.0 |
| 20260507201334 | 31 | 162 | 3.2 | 12.9 | 0.00 | 0.00 | 0.00 | 67 | 1014.0 |
| 20260507200827 | 31 | 191 | 8.0 | 12.9 | 0.00 | 0.00 | 0.00 | 68 | 1014.1 |
| 20260507200332 | 30 | 127 | 6.4 | 14.5 | 0.00 | 0.00 | 0.00 | 68 | 1014.1 |
| 20260507195830 | 30 | 153 | 6.4 | 14.5 | 0.00 | 0.00 | 0.00 | 68 | 1014.2 |
| 20260507195328 | 31 | 165 | 6.4 | 12.9 | 0.00 | 0.00 | 0.00 | 68 | 1014.3 |
| 20260507194833 | 31 | 158 | 3.2 | 16.1 | 0.00 | 0.00 | 0.00 | 68 | 1014.2 |
| 20260507194330 | 31 | 171 | 4.8 | 16.1 | 0.00 | 0.00 | 0.00 | 68 | 1014.2 |
| 20260507193827 | 31 | 212 | 8.0 | 14.5 | 0.00 | 0.00 | 0.00 | 67 | 1014.3 |
| 20260507193332 | 31 | 170 | 3.2 | 16.1 | 0.00 | 0.00 | 0.00 | 67 | 1014.3 |
| 20260507192830 | 31 | 105 | 6.4 | 16.1 | 0.00 | 0.00 | 0.00 | 66 | 1014.4 |
| 20260507192326 | 31 | 204 | 3.2 | 14.5 | 0.00 | 0.00 | 0.00 | 67 | 1014.5 |
| 20260507191831 | 30 | 163 | 8.0 | 17.7 | 0.00 | 0.00 | 0.00 | 67 | 1014.5 |
| 20260507191328 | 31 | 184 | 8.0 | 17.7 | 0.00 | 0.00 | 0.00 | 66 | 1014.7 |
| 20260507190833 | 31 | 177 | 4.8 | 16.1 | 0.00 | 0.00 | 0.00 | 66 | 1014.7 |
| 20260507190330 | 31 | 335 | 1.6 | 16.1 | 0.00 | 0.00 | 0.00 | 67 | 1014.7 |
| 20260507185828 | 31 | 163 | 3.2 | 12.9 | 0.00 | 0.00 | 0.00 | 67 | 1014.8 |
| 20260507185327 | 31 | 155 | 6.4 | 12.9 | 0.00 | 0.00 | 0.00 | 65 | 1014.8 |
| 20260507184831 | 31 | 184 | 3.2 | 12.9 | 0.00 | 0.00 | 0.00 | 67 | 1014.9 |
| 20260507184326 | 31 | 184 | 3.2 | 16.1 | 0.00 | 0.00 | 0.00 | 67 | 1015.1 |
| 20260507183831 | 31 | 163 | 8.0 | 16.1 | 0.00 | 0.00 | 0.00 | 66 | 1015.1 |
| 20260507183335 | 31 | 191 | 6.4 | 17.7 | 0.00 | 0.00 | 0.00 | 66 | 1015.1 |
| 20260507182839 | 31 | 164 | 6.4 | 17.7 | 0.00 | 0.00 | 0.00 | 66 | 1015.2 |
| 20260507182328 | 31 | 162 | 9.7 | 17.7 | 0.00 | 0.00 | 0.00 | 66 | 1015.2 |
| 20260507181833 | 31 | 331 | 1.6 | 16.1 | 0.00 | 0.00 | 0.00 | 67 | 1015.2 |
| 20260507181329 | 31 | 197 | 6.4 | 16.1 | 0.00 | 0.00 | 0.00 | 66 | 1015.4 |
| 20260507180826 | 31 | 134 | 4.8 | 16.1 | 0.00 | 0.00 | 0.00 | 68 | 1015.5 |
| 20260507180332 | 31 | 206 | 6.4 | 12.9 | 0.00 | 0.00 | 0.00 | 68 | 1015.5 |
| 20260507175826 | 30 | 205 | 6.4 | 16.1 | 0.00 | 0.00 | 0.00 | 69 | 1015.6 |
| 20260507175330 | 31 | 149 | 9.7 | 16.1 | 0.00 | 0.00 | 0.00 | 68 | 1015.8 |
| 20260507174828 | 31 | 216 | 8.0 | 16.1 | 0.00 | 0.00 | 0.00 | 68 | 1015.8 |
| 20260507174334 | 30 | 217 | 8.0 | 16.1 | 0.00 | 0.00 | 0.00 | 68 | 1015.9 |
| 20260507173830 | 31 | 233 | 6.4 | 16.1 | 0.00 | 0.00 | 0.00 | 68 | 1016.0 |
| 20260507173327 | 30 | 160 | 3.2 | 16.1 | 0.00 | 0.00 | 0.00 | 68 | 1016.1 |
| 20260507172833 | 30 | 181 | 6.4 | 16.1 | 0.00 | 0.00 | 0.00 | 68 | 1016.1 |
| 20260507172327 | 30 | 158 | 4.8 | 17.7 | 0.00 | 0.00 | 0.00 | 69 | 1016.1 |
| 20260507171832 | 30 | 204 | 9.7 | 19.3 | 0.00 | 0.00 | 0.00 | 72 | 1016.2 |
| 20260507171329 | 30 | 108 | 9.7 | 19.3 | 0.00 | 0.00 | 0.00 | 72 | 1016.3 |
| 20260507170834 | 30 | 145 | 9.7 | 19.3 | 0.00 | 0.00 | 0.00 | 72 | 1016.4 |
| 20260507170329 | 30 | 166 | 9.7 | 19.3 | 0.00 | 0.00 | 0.00 | 72 | 1016.5 |
| 20260507165828 | 30 | 134 | 8.0 | 19.3 | 0.00 | 0.00 | 0.00 | 70 | 1016.5 |
| 20260507165330 | 30 | 212 | 8.0 | 16.1 | 0.00 | 0.00 | 0.00 | 71 | 1016.5 |
| 20260507164828 | 30 | 166 | 6.4 | 19.3 | 0.00 | 0.00 | 0.00 | 71 | 1016.5 |
| 20260507164326 | 30 | 274 | 9.7 | 19.3 | 0.00 | 0.00 | 0.00 | 70 | 1016.6 |
| 20260507163831 | 30 | 176 | 8.0 | 17.7 | 0.00 | 0.00 | 0.00 | 70 | 1016.7 |
| 20260507163327 | 31 | 186 | 8.0 | 17.7 | 0.00 | 0.00 | 0.00 | 70 | 1016.8 |
| 20260507162832 | 31 | 109 | 8.0 | 16.1 | 0.00 | 0.00 | 0.00 | 67 | 1016.8 |
| 20260507162329 | 31 | 174 | 3.2 | 14.5 | 0.00 | 0.00 | 0.00 | 69 | 1016.9 |
| 20260507161833 | 31 | 251 | 6.4 | 12.9 | 0.00 | 0.00 | 0.00 | 69 | 1016.8 |
| 20260507161330 | 31 | 206 | 6.4 | 12.9 | 0.00 | 0.00 | 0.00 | 69 | 1016.9 |
| 20260507160828 | 31 | 144 | 8.0 | 14.5 | 0.00 | 0.00 | 0.00 | 69 | 1016.9 |
| 20260507160333 | 30 | 169 | 6.4 | 17.7 | 0.00 | 0.00 | 0.00 | 69 | 1017.0 |
| 20260507155834 | 30 | 131 | 8.0 | 16.1 | 0.00 | 0.00 | 0.00 | 68 | 1017.1 |
| 20260507155330 | 31 | 206 | 9.7 | 17.7 | 0.00 | 0.00 | 0.00 | 68 | 1017.0 |
| 20260507154832 | 31 | 224 | 6.4 | 17.7 | 0.00 | 0.00 | 0.00 | 67 | 1017.1 |
| 20260507154329 | 31 | 154 | 4.8 | 16.1 | 0.00 | 0.00 | 0.00 | 68 | 1017.1 |
| 20260507153857 | 31 | 192 | 4.8 | 12.9 | 0.00 | 0.00 | 0.00 | 66 | 1017.1 |
| 20260507153826 | 31 | 192 | 4.8 | 12.9 | 0.00 | 0.00 | 0.00 | 66 | 1017.1 |
| 20260507153528 | 31 | 181 | 3.2 | 12.9 | 0.00 | 0.00 | 0.00 | 68 | 1017.1 |
| 20260507153332 | 31 | 181 | 3.2 | 12.9 | 0.00 | 0.00 | 0.00 | 68 | 1017.1 |
| 20260507152828 | 31 | 184 | 4.8 | 11.3 | 0.00 | 0.00 | 0.00 | 68 | 1017.1 |
| 20260507152332 | 31 | 151 | 4.8 | 12.9 | 0.00 | 0.00 | 0.00 | 67 | 1017.1 |
| 20260507152239 | 30 | 116 | 4.8 | 19.3 | 0.00 | 0.00 | 0.00 | 67 | 1017.0 |
| 20260507151831 | 30 | 116 | 4.8 | 19.3 | 0.00 | 0.00 | 0.00 | 67 | 1017.0 |
| 20260507151331 | 31 | 172 | 9.7 | 19.3 | 0.00 | 0.00 | 0.00 | 68 | 1017.1 |
| 20260507150826 | 31 | 172 | 3.2 | 14.5 | 0.00 | 0.00 | 0.00 | 67 | 1017.0 |
| 20260507150330 | 31 | 169 | 1.6 | 16.1 | 0.00 | 0.00 | 0.00 | 68 | 1017.1 |
| 20260507145827 | 31 | 177 | 4.8 | 16.1 | 0.00 | 0.00 | 0.00 | 67 | 1017.2 |
| 20260507145330 | 31 | 172 | 3.2 | 14.5 | 0.00 | 0.00 | 0.00 | 67 | 1017.2 |
| 20260507144827 | 31 | 188 | 3.2 | 14.5 | 0.00 | 0.00 | 0.00 | 66 | 1017.1 |
| 20260507144333 | 31 | 188 | 6.4 | 11.3 | 0.00 | 0.00 | 0.00 | 66 | 1017.1 |
| 20260507143828 | 30 | 155 | 1.6 | 11.3 | 0.00 | 0.00 | 0.00 | 68 | 1017.1 |
| 20260507143332 | 30 | 157 | 4.8 | 11.3 | 0.00 | 0.00 | 0.00 | 68 | 1017.0 |
| 20260507142830 | 30 | 169 | 1.6 | 8.0 | 0.00 | 0.00 | 0.00 | 69 | 1017.1 |
| 20260507142327 | 30 | 172 | 0.0 | 8.0 | 0.00 | 0.00 | 0.00 | 70 | 1017.1 |
| 20260507141832 | 30 | 176 | 0.0 | 6.4 | 0.00 | 0.00 | 0.00 | 70 | 1017.1 |
| 20260507141329 | 30 | 255 | 0.0 | 8.0 | 0.00 | 0.00 | 0.00 | 70 | 1017.1 |
| 20260507140827 | 30 | 29 | 1.6 | 8.0 | 0.00 | 0.00 | 0.00 | 68 | 1017.1 |
| 20260507140332 | 30 | 170 | 3.2 | 6.4 | 0.00 | 0.00 | 0.00 | 67 | 1017.2 |
| 20260507135828 | 30 | 155 | 0.0 | 6.4 | 0.00 | 0.00 | 0.00 | 68 | 1017.4 |
| 20260507135333 | 30 | 186 | 0.0 | 11.3 | 0.00 | 0.00 | 0.00 | 69 | 1017.3 |
| 20260507134829 | 30 | 167 | 1.6 | 12.9 | 0.00 | 0.00 | 0.00 | 69 | 1017.3 |
| 20260507134333 | 30 | 115 | 6.4 | 12.9 | 0.00 | 0.00 | 0.00 | 70 | 1017.3 |
| 20260507133839 | 29 | 202 | 0.0 | 1.6 | 0.00 | 0.00 | 0.00 | 74 | 1017.3 |
| 20260507133343 | 28 | 49 | 0.0 | 3.2 | 0.00 | 0.00 | 0.00 | 76 | 1017.3 |
| 20260507132826 | 28 | 174 | 0.0 | 3.2 | 0.00 | 0.00 | 0.00 | 76 | 1017.4 |
| 20260507132332 | 28 | 54 | 0.0 | 3.2 | 0.00 | 0.00 | 0.00 | 77 | 1017.2 |
| 20260507131838 | 28 | 45 | 0.0 | 3.2 | 0.00 | 0.00 | 0.00 | 77 | 1017.3 |
| 20260507131343 | 28 | 46 | 0.0 | 4.8 | 0.00 | 0.00 | 0.00 | 78 | 1017.3 |
| 20260507130827 | 28 | 69 | 0.0 | 8.0 | 0.00 | 0.00 | 0.00 | 78 | 1017.3 |
| 20260507130345 | 28 | 345 | 1.6 | 8.0 | 0.00 | 0.00 | 0.00 | 79 | 1017.3 |
| 20260507125828 | 28 | 30 | 0.0 | 4.8 | 0.00 | 0.00 | 0.00 | 79 | 1017.3 |
| 20260507125333 | 28 | 347 | 0.0 | 9.7 | 0.00 | 0.00 | 0.00 | 79 | 1017.3 |
| 20260507124839 | 27 | 100 | 0.0 | 9.7 | 0.00 | 0.00 | 0.00 | 80 | 1017.2 |
| 20260507124344 | 27 | 169 | 0.0 | 9.7 | 0.00 | 0.00 | 0.00 | 80 | 1017.2 |
| 20260507123828 | 28 | 18 | 0.0 | 1.6 | 0.00 | 0.00 | 0.00 | 80 | 1017.1 |
| 20260507123326 | 27 | 40 | 0.0 | 3.2 | 0.00 | 0.00 | 0.00 | 81 | 1017.0 |
| 20260507122828 | 27 | 62 | 0.0 | 6.4 | 0.00 | 0.00 | 0.00 | 82 | 1016.9 |
| 20260507122326 | 27 | 65 | 1.6 | 6.4 | 0.00 | 0.00 | 0.00 | 82 | 1016.9 |
| 20260507121831 | 27 | 7 | 0.0 | 8.0 | 0.00 | 0.00 | 0.00 | 83 | 1016.8 |
| 20260507121336 | 26 | 30 | 1.6 | 8.0 | 0.00 | 0.00 | 0.00 | 83 | 1016.8 |
| 20260507120840 | 26 | 7 | 1.6 | 6.4 | 0.00 | 0.00 | 0.00 | 84 | 1016.8 |
| 20260507120327 | 26 | 360 | 0.0 | 0.0 | 0.00 | 0.00 | 0.00 | 84 | 1016.7 |
| 20260507115833 | 26 | 64 | 0.0 | 0.0 | 0.00 | 0.00 | 0.00 | 85 | 1016.8 |
| 20260507115337 | 26 | 350 | 0.0 | 6.4 | 0.00 | 0.00 | 0.00 | 85 | 1016.7 |
| 20260507114842 | 26 | 323 | 1.6 | 6.4 | 0.00 | 0.00 | 0.00 | 86 | 1016.7 |
| 20260507114328 | 25 | 87 | 0.0 | 4.8 | 0.00 | 0.00 | 0.00 | 86 | 1016.6 |
| 20260507113833 | 25 | 4 | 0.0 | 6.4 | 0.00 | 0.00 | 0.00 | 87 | 1016.6 |
| 20260507113329 | 25 | 8 | 0.0 | 6.4 | 0.00 | 0.00 | 0.00 | 87 | 1016.5 |
| 20260507112834 | 25 | 72 | 1.6 | 6.4 | 0.00 | 0.00 | 0.00 | 87 | 1016.5 |
| 20260507112337 | 25 | 354 | 0.0 | 3.2 | 0.00 | 0.00 | 0.00 | 88 | 1016.4 |
| 20260507111843 | 25 | 3 | 0.0 | 3.2 | 0.00 | 0.00 | 0.00 | 88 | 1016.4 |
| 20260507111327 | 25 | 63 | 0.0 | 4.8 | 0.00 | 0.00 | 0.00 | 88 | 1016.3 |
| 20260507110833 | 24 | 292 | 0.0 | 4.8 | 0.00 | 0.00 | 0.00 | 88 | 1016.3 |
| 20260507110329 | 24 | 335 | 0.0 | 4.8 | 0.00 | 0.00 | 0.00 | 88 | 1016.2 |
| 20260507105834 | 24 | 63 | 0.0 | 4.8 | 0.00 | 0.00 | 0.00 | 88 | 1016.2 |
| 20260507105339 | 24 | 11 | 1.6 | 6.4 | 0.00 | 0.00 | 0.00 | 88 | 1016.2 |
| 20260507104843 | 24 | 11 | 1.6 | 6.4 | 0.00 | 0.00 | 0.00 | 88 | 1016.1 |
| 20260507104327 | 24 | 21 | 1.6 | 6.4 | 0.00 | 0.00 | 0.00 | 88 | 1016.1 |
| 20260507103833 | 24 | 321 | 0.0 | 4.8 | 0.00 | 0.00 | 0.00 | 89 | 1016.0 |
| 20260507103331 | 24 | 26 | 526.3 | 4.8 | 0.00 | 0.00 | 0.00 | 89 | 1016.0 |
| 20260507102835 | -17 | 0.0 | 0.0 | 0.00 | 0.00 | 0.00 | 1015.9 | ||
| 20260507102339 | -17 | 0.0 | 0.0 | 0.00 | 0.00 | 0.00 | 1015.8 | ||
| 20260507101844 | -17 | 0.0 | 0.0 | 0.00 | 0.00 | 0.00 | 1015.7 | ||
| 20260507100329 | -17 | 0.0 | 0.0 | 0.00 | 0.00 | 0.00 | 1015.8 | ||
| 20260507095834 | -17 | 0.0 | 0.0 | 0.00 | 0.00 | 0.00 | 1015.7 | ||
| 20260507095338 | -17 | 0.0 | 0.0 | 0.00 | 0.00 | 0.00 | 1015.8 | ||
| 20260507093831 | -17 | 0.0 | 0.0 | 0.00 | 0.00 | 0.00 | 1015.7 | ||
| 20260507093326 | -17 | 0.0 | 0.0 | 0.00 | 0.00 | 0.00 | 1015.6 | ||
| 20260507092831 | -17 | 0.0 | 0.0 | 0.00 | 0.00 | 0.00 | 1015.6 | ||
| 20260507091329 | -17 | 0.0 | 0.0 | 0.00 | 0.00 | 0.00 | 1015.5 | ||
| 20260507090833 | -17 | 0.0 | 0.0 | 0.00 | 0.00 | 0.00 | 1015.5 | ||
| 20260507090327 | -17 | 0.0 | 0.0 | 0.00 | 0.00 | 0.00 | 1015.4 | ||
| 20260507085403 | -17 | 0.0 | 0.0 | 0.00 | 0.00 | 0.00 | 1015.3 | ||
| 20260507084828 | -17 | 0.0 | 0.0 | 0.00 | 0.00 | 0.00 | 1015.2 | ||
| 20260507084333 | -17 | 0.0 | 0.0 | 0.00 | 0.00 | 0.00 | 1015.2 | ||
| 20260507083831 | -17 | 0.0 | 0.0 | 0.00 | 0.00 | 0.00 | 1015.2 | ||
| 20260507082903 | -17 | 0.0 | 0.0 | 0.00 | 0.00 | 0.00 | 1015.2 | ||
| 20260507082328 | -17 | 0.0 | 0.0 | 0.00 | 0.00 | 0.00 | 1015.3 | ||
| 20260507081844 | -17 | 0.0 | 0.0 | 0.00 | 0.00 | 0.00 | 1015.3 | ||
| 20260507081329 | -17 | 0.0 | 0.0 | 0.00 | 0.00 | 0.00 | 1015.3 | ||
| 20260507080916 | -17 | 0.0 | 0.0 | 0.00 | 0.00 | 0.00 | 1015.3 | ||
| 20260507080403 | -17 | 0.0 | 0.0 | 0.00 | 0.00 | 0.00 | 1015.3 | ||
| 20260507075832 | -17 | 0.0 | 0.0 | 0.00 | 0.00 | 0.00 | 1015.4 | ||
| 20260507075329 | -17 | 0.0 | 0.0 | 0.00 | 0.00 | 0.00 | 1015.4 | ||
| 20260507074834 | -17 | 0.0 | 0.0 | 0.00 | 0.00 | 0.00 | 1015.4 | ||
| 20260507073903 | -17 | 0.0 | 0.0 | 0.00 | 0.00 | 0.00 | 1015.5 | ||
| 20260507073338 | -17 | 0.0 | 0.0 | 0.00 | 0.00 | 0.00 | 1015.6 | ||
| 20260507072842 | -17 | 0.0 | 0.0 | 0.00 | 0.00 | 0.00 | 1015.6 | ||
| 20260507072326 | -17 | 0.0 | 0.0 | 0.00 | 0.00 | 0.00 | 1015.7 | ||
| 20260507071912 | -17 | 0.0 | 0.0 | 0.00 | 0.00 | 0.00 | 1015.6 | ||
| 20260507071403 | -17 | 0.0 | 0.0 | 0.00 | 0.00 | 0.00 | 1015.8 | ||
| 20260507070835 | -17 | 0.0 | 0.0 | 0.00 | 0.00 | 0.00 | 1015.7 | ||
| 20260507070340 | -17 | 0.0 | 0.0 | 0.00 | 0.00 | 0.00 | 1015.8 | ||
| 20260507065826 | -17 | 0.0 | 0.0 | 0.00 | 0.00 | 0.00 | 1015.9 | ||
| 20260507064325 | -17 | 0.0 | 0.0 | 0.00 | 0.00 | 0.00 | 1016.1 | ||
| 20260507063830 | -17 | 0.0 | 0.0 | 0.00 | 0.00 | 0.00 | 1016.0 | ||
| 20260507063335 | -17 | 0.0 | 0.0 | 0.00 | 0.00 | 0.00 | 1016.2 | ||
| 20260507062330 | -17 | 0.0 | 0.0 | 0.00 | 0.00 | 0.00 | 1016.2 | ||
| 20260507061832 | -17 | 0.0 | 0.0 | 0.00 | 0.00 | 0.00 | 1016.2 | ||
| 20260507061329 | -17 | 0.0 | 0.0 | 0.00 | 0.00 | 0.00 | 1016.3 | ||
| 20260507060833 | -17 | 0.0 | 0.0 | 0.00 | 0.00 | 0.00 | 1016.3 | ||
| 20260507055330 | -17 | 0.0 | 0.0 | 0.00 | 0.00 | 0.00 | 1016.5 | ||
| 20260507054835 | -17 | 0.0 | 0.0 | 0.00 | 0.00 | 0.00 | 1016.6 | ||
| 20260507054339 | -17 | 0.0 | 0.0 | 0.00 | 0.00 | 0.00 | 1016.6 | ||
| 20260507053405 | -17 | 0.0 | 0.0 | 0.00 | 0.00 | 0.00 | 1016.7 | ||
| 20260507052828 | -17 | 0.0 | 0.0 | 0.00 | 0.00 | 0.00 | 1016.8 | ||
| 20260507052333 | -17 | 0.0 | 0.0 | 0.00 | 0.00 | 0.00 | 1016.9 | ||
| 20260507051829 | -17 | 0.0 | 0.0 | 0.00 | 0.00 | 0.00 | 1017.0 | ||
| 20260507050334 | -17 | 0.0 | 0.0 | 0.00 | 0.00 | 0.00 | 1017.0 | ||
| 20260507045829 | -17 | 0.0 | 0.0 | 0.00 | 0.00 | 0.00 | 1017.1 | ||
| 20260507045333 | -17 | 0.0 | 0.0 | 0.00 | 0.00 | 0.00 | 1017.1 | ||
| 20260507043832 | -17 | 0.0 | 0.0 | 0.00 | 0.00 | 0.00 | 1017.3 | ||
| 20260507043335 | -17 | 0.0 | 0.0 | 0.00 | 0.00 | 0.00 | 1017.3 | ||
| 20260507042839 | -17 | 0.0 | 0.0 | 0.00 | 0.00 | 0.00 | 1017.4 | ||
| 20260507041830 | -17 | 0.0 | 0.0 | 0.00 | 0.00 | 0.00 | 1017.5 | ||
| 20260507041332 | -17 | 0.0 | 0.0 | 0.00 | 0.00 | 0.00 | 1017.5 | ||
| 20260507040838 | -17 | 0.0 | 0.0 | 0.00 | 0.00 | 0.00 | 1017.5 | ||
| 20260507040343 | -17 | 0.0 | 0.0 | 0.00 | 0.00 | 0.00 | 1017.6 | ||
| 20260507035907 | -17 | 0.0 | 0.0 | 0.00 | 0.00 | 0.00 | 1017.6 | ||
| 20260507035405 | -17 | 0.0 | 0.0 | 0.00 | 0.00 | 0.00 | 1017.7 | ||
| 20260507034843 | -17 | 0.0 | 0.0 | 0.00 | 0.00 | 0.00 | 1017.8 | ||
| 20260507034328 | -17 | 0.0 | 0.0 | 0.00 | 0.00 | 0.00 | 1017.7 | ||
| 20260507033833 | -17 | 0.0 | 0.0 | 0.00 | 0.00 | 0.00 | 1017.9 | ||
| 20260507032849 | 26 | 23 | 0.0 | 0.0 | 0.00 | 0.00 | 0.00 | 81 | 1017.8 |
| 20260507032328 | 27 | 13 | 0.0 | 0.0 | 0.00 | 0.00 | 0.00 | 81 | 1017.9 |
| 20260507031833 | 27 | 60 | 0.0 | 1.6 | 0.00 | 0.00 | 0.00 | 80 | 1017.9 |
| 20260507031330 | 27 | 62 | 0.0 | 1.6 | 0.00 | 0.00 | 0.00 | 80 | 1017.9 |
| 20260507030828 | 27 | 328 | 0.0 | 0.0 | 0.00 | 0.00 | 0.00 | 80 | 1017.8 |
| 20260507030333 | 27 | 335 | 0.0 | 0.0 | 0.00 | 0.00 | 0.00 | 80 | 1017.8 |
| 20260507025831 | 27 | 334 | 0.0 | 0.0 | 0.00 | 0.00 | 0.00 | 80 | 1017.8 |
| 20260507025329 | 27 | 179 | 0.0 | 0.0 | 0.00 | 0.00 | 0.00 | 80 | 1017.9 |
| 20260507024832 | 27 | 179 | 0.0 | 6.4 | 0.00 | 0.00 | 0.00 | 79 | 1017.8 |
| 20260507024329 | 27 | 162 | 0.0 | 4.8 | 0.00 | 0.00 | 0.00 | 79 | 1017.8 |
| 20260507023828 | 27 | 219 | 0.0 | 0.0 | 0.00 | 0.00 | 0.00 | 79 | 1017.7 |
| 20260507023331 | 27 | 157 | 0.0 | 0.0 | 0.00 | 0.00 | 0.00 | 79 | 1017.6 |
| 20260507022827 | 27 | 142 | 0.0 | 0.0 | 0.00 | 0.00 | 0.00 | 79 | 1017.6 |
| 20260507022333 | 27 | 146 | 0.0 | 8.0 | 0.00 | 0.00 | 0.00 | 79 | 1017.7 |
| 20260507021831 | 27 | 188 | 1.6 | 8.0 | 0.00 | 0.00 | 0.00 | 79 | 1017.6 |
| 20260507021327 | 27 | 146 | 0.0 | 4.8 | 0.00 | 0.00 | 0.00 | 78 | 1017.6 |
| 20260507020832 | 27 | 156 | 0.0 | 1.6 | 0.00 | 0.00 | 0.00 | 78 | 1017.6 |
| 20260507020328 | 27 | 168 | 0.0 | 6.4 | 0.00 | 0.00 | 0.00 | 79 | 1017.5 |
| 20260507015832 | 27 | 154 | 0.0 | 9.7 | 0.00 | 0.00 | 0.00 | 79 | 1017.4 |
| 20260507015329 | 27 | 179 | 3.2 | 9.7 | 0.00 | 0.00 | 0.00 | 78 | 1017.4 |
| 20260507014827 | 27 | 155 | 0.0 | 9.7 | 0.00 | 0.00 | 0.00 | 77 | 1017.4 |
| 20260507014332 | 27 | 171 | 1.6 | 8.0 | 0.00 | 0.00 | 0.00 | 78 | 1017.3 |
| 20260507013827 | 27 | 172 | 3.2 | 8.0 | 0.00 | 0.00 | 0.00 | 78 | 1017.1 |
| 20260507013334 | 27 | 158 | 1.6 | 8.0 | 0.00 | 0.00 | 0.00 | 78 | 1017.0 |
| 20260507012827 | 27 | 170 | 1.6 | 6.4 | 0.00 | 0.00 | 0.00 | 79 | 1017.1 |
| 20260507012331 | 27 | 156 | 0.0 | 6.4 | 0.00 | 0.00 | 0.00 | 79 | 1017.0 |
| 20260507011829 | 27 | 156 | 0.0 | 8.0 | 0.00 | 0.00 | 0.00 | 78 | 1017.0 |
| 20260507011334 | 27 | 179 | 1.6 | 8.0 | 0.00 | 0.00 | 0.00 | 78 | 1017.0 |
| 20260507010831 | 27 | 174 | 0.0 | 3.2 | 0.00 | 0.00 | 0.00 | 78 | 1016.9 |
| 20260507010328 | 27 | 162 | 0.0 | 6.4 | 0.00 | 0.00 | 0.00 | 78 | 1016.9 |
| 20260507005834 | 27 | 146 | 1.6 | 6.4 | 0.00 | 0.00 | 0.00 | 78 | 1016.8 |
| 20260507005327 | 27 | 168 | 0.0 | 4.8 | 0.00 | 0.00 | 0.00 | 78 | 1016.8 |
| 20260507004831 | 27 | 159 | 1.6 | 6.4 | 0.00 | 0.00 | 0.00 | 78 | 1016.8 |
| 20260507004329 | 27 | 156 | 0.0 | 9.7 | 0.00 | 0.00 | 0.00 | 78 | 1016.8 |
| 20260507003835 | 27 | 176 | 6.4 | 9.7 | 0.00 | 0.00 | 0.00 | 78 | 1016.8 |
| 20260507003331 | 27 | 172 | 3.2 | 6.4 | 0.00 | 0.00 | 0.00 | 78 | 1016.8 |
| 20260507002828 | 27 | 186 | 1.6 | 8.0 | 0.00 | 0.00 | 0.00 | 78 | 1016.7 |
| 20260507002331 | 27 | 163 | 0.0 | 8.0 | 0.00 | 0.00 | 0.00 | 78 | 1016.7 |
| 20260507001833 | 27 | 178 | 1.6 | 6.4 | 0.00 | 0.00 | 0.00 | 77 | 1016.6 |
| 20260507001331 | 27 | 179 | 1.6 | 9.7 | 0.00 | 0.00 | 0.00 | 77 | 1016.6 |
| 20260507000829 | 27 | 156 | 1.6 | 9.7 | 0.00 | 0.00 | 0.00 | 76 | 1016.6 |
| 20260507000332 | 27 | 188 | 4.8 | 9.7 | 0.00 | 0.00 | 0.00 | 76 | 1016.5 |
| 20260506235827 | 28 | 188 | 0.0 | 8.0 | 0.00 | 0.00 | 0.00 | 77 | 1016.4 |
| 20260506235326 | 27 | 177 | 1.6 | 8.0 | 0.00 | 0.00 | 0.00 | 77 | 1016.4 |
| 20260506234828 | 27 | 165 | 3.2 | 11.3 | 0.00 | 0.00 | 0.00 | 78 | 1016.5 |
| 20260506234332 | 27 | 149 | 1.6 | 11.3 | 0.00 | 0.00 | 0.00 | 77 | 1016.4 |
| 20260506233829 | 28 | 136 | 4.8 | 9.7 | 0.00 | 0.00 | 0.00 | 76 | 1016.4 |
| 20260506233327 | 28 | 183 | 3.2 | 8.0 | 0.00 | 0.00 | 0.00 | 76 | 1016.3 |
| 20260506232833 | 28 | 183 | 1.6 | 11.3 | 0.00 | 0.00 | 0.00 | 76 | 1016.3 |
| 20260506232330 | 28 | 210 | 4.8 | 11.3 | 0.00 | 0.00 | 0.00 | 76 | 1016.2 |
| 20260506231834 | 28 | 169 | 4.8 | 12.9 | 0.00 | 0.00 | 0.00 | 75 | 1016.2 |
| 20260506231329 | 28 | 148 | 3.2 | 12.9 | 0.00 | 0.00 | 0.00 | 76 | 1016.1 |
| 20260506230827 | 28 | 214 | 0.0 | 6.4 | 0.00 | 0.00 | 0.00 | 77 | 1016.1 |
| 20260506230332 | 28 | 217 | 1.6 | 6.4 | 0.00 | 0.00 | 0.00 | 76 | 1016.1 |
| 20260506225827 | 28 | 153 | 3.2 | 8.0 | 0.00 | 0.00 | 0.00 | 75 | 1016.0 |
| 20260506225332 | 28 | 176 | 1.6 | 9.7 | 0.00 | 0.00 | 0.00 | 74 | 1016.0 |
| 20260506224829 | 28 | 158 | 1.6 | 9.7 | 0.00 | 0.00 | 0.00 | 74 | 1016.0 |
| 20260506224333 | 28 | 146 | 1.6 | 8.0 | 0.00 | 0.00 | 0.00 | 74 | 1015.9 |
| 20260506223830 | 28 | 147 | 1.6 | 8.0 | 0.00 | 0.00 | 0.00 | 73 | 1015.9 |
| 20260506223328 | 28 | 160 | 0.0 | 6.4 | 0.00 | 0.00 | 0.00 | 74 | 1015.9 |
| 20260506222834 | 29 | 165 | 0.0 | 8.0 | 0.00 | 0.00 | 0.00 | 74 | 1015.9 |
| 20260506222329 | 29 | 109 | 1.6 | 8.0 | 0.00 | 0.00 | 0.00 | 72 | 1015.9 |